FW4751 Weather Reports


Display with metric or nautical units.
time (UTC)temp
F
wind
direction
speed
MPH
gust
MPH
rain 1hr
in
rain 24hr
in
rain mn
in
humidity
%
barometer
mb
20260507070504 57 0.0 2.0 0.00 0.00 0.00 84 1019.9
20260507070010 57 0.0 1.0 0.00 0.00 0.00 84 1019.8
20260507065504 57 0.0 2.0 0.00 0.00 0.00 84 1019.9
20260507065003 57 0.0 1.0 0.00 0.00 0.00 84 1019.9
20260507064504 57 45 1.0 3.0 0.00 0.00 0.00 84 1020.0
20260507064004 57 45 1.0 2.0 0.00 0.00 0.00 84 1020.0
20260507063524 57 45 1.0 3.0 0.00 0.00 0.00 85 1019.9
20260507063003 57 0.0 3.0 0.00 0.00 0.00 85 1019.9
20260507062504 57 45 1.0 3.0 0.00 0.00 0.00 85 1019.9
20260507062003 57 45 1.0 2.0 0.00 0.00 0.00 85 1019.9
20260507061503 57 45 1.0 2.0 0.00 0.00 0.00 85 1020.0
20260507061004 57 45 1.0 2.0 0.00 0.00 0.00 85 1020.0
20260507060504 57 45 1.0 2.0 0.00 0.00 0.00 85 1019.9
20260507060004 57 0.0 2.0 0.00 0.00 0.00 85 1020.0
20260507055503 57 45 1.0 2.0 0.00 0.00 0.00 85 1019.9
20260507055004 57 0.0 2.0 0.00 0.00 0.00 85 1020.0
20260507054504 57 0.0 1.0 0.00 0.00 0.00 85 1019.9
20260507054003 57 0.0 1.0 0.00 0.00 0.00 84 1019.9
20260507053603 57 0.0 1.0 0.00 0.00 0.00 84 1020.0
20260507053023 57 0.0 1.0 0.00 0.00 0.00 83 1019.9
20260507052503 57 0.0 1.0 0.00 0.00 0.00 83 1019.9
20260507052004 57 0.0 1.0 0.00 0.00 0.00 83 1020.0
20260507051504 57 0.0 2.0 0.00 0.00 0.00 83 1019.9
20260507051003 58 0 1.0 2.0 0.00 0.00 0.00 82 1019.9
20260507050503 58 0.0 1.0 0.00 0.00 0.00 82 1019.9
20260507050004 58 0.0 2.0 0.00 0.00 0.00 82 1020.0
20260507045503 58 0.0 2.0 0.00 0.00 0.00 82 1019.9
20260507045003 58 0.0 2.0 0.00 0.00 0.00 81 1019.9
20260507044504 58 45 1.0 2.0 0.00 0.00 0.00 81 1019.9
20260507044003 58 45 1.0 2.0 0.00 0.00 0.00 81 1020.0
20260507043503 58 45 1.0 4.0 0.00 0.00 0.00 81 1019.9
20260507043004 58 45 1.0 3.0 0.00 0.00 0.00 80 1019.8
20260507042503 58 45 1.0 4.0 0.00 0.00 0.00 80 1019.8
20260507042003 59 45 1.0 3.0 0.00 0.00 0.00 80 1019.7
20260507041503 59 45 1.0 3.0 0.00 0.00 0.00 79 1019.8
20260507041003 59 45 2.0 5.0 0.00 0.00 0.00 79 1019.6
20260507040503 59 338 2.0 4.0 0.00 0.00 0.00 78 1019.5
20260507040003 59 45 1.0 7.0 0.00 0.00 0.00 78 1019.4
20260507035503 59 338 2.0 5.0 0.00 0.00 0.00 78 1019.4
20260507035003 60 338 2.0 5.0 0.00 0.00 0.00 77 1019.4
20260507034503 60 338 2.0 7.0 0.00 0.00 0.00 77 1019.4
20260507034023 60 0 3.0 8.0 0.00 0.00 0.00 77 1019.3
20260507033503 61 45 2.0 6.0 0.00 0.00 0.00 76 1019.3
20260507033003 61 45 2.0 6.0 0.00 0.00 0.00 76 1019.2
20260507032504 61 45 2.0 5.0 0.00 0.00 0.00 75 1019.0
20260507032003 62 45 2.0 5.0 0.00 0.00 0.00 75 1019.0
20260507031503 62 45 2.0 6.0 0.00 0.00 0.00 74 1018.9
20260507031003 62 338 2.0 5.0 0.00 0.00 0.00 74 1018.9
20260507030503 63 23 2.0 6.0 0.00 0.00 0.00 73 1018.7
20260507030003 63 338 2.0 6.0 0.00 0.00 0.00 73 1018.8
20260507025504 63 23 2.0 5.0 0.00 0.00 0.00 72 1018.7
20260507025003 64 45 2.0 7.0 0.00 0.00 0.00 72 1018.6
20260507024503 64 45 2.0 5.0 0.00 0.00 0.00 71 1018.4
20260507024003 65 45 2.0 7.0 0.00 0.00 0.00 70 1018.2
20260507023503 65 45 2.0 5.0 0.00 0.00 0.00 70 1018.2
20260507023003 66 45 2.0 6.0 0.00 0.00 0.00 69 1018.4
20260507022523 66 0 2.0 6.0 0.00 0.00 0.00 68 1018.3
20260507022023 67 338 3.0 7.0 0.00 0.00 0.00 68 1018.3
20260507021503 67 338 2.0 6.0 0.00 0.00 0.00 67 1018.2
20260507021003 67 338 3.0 7.0 0.00 0.00 0.00 67 1018.1
20260507020523 68 338 3.0 7.0 0.00 0.00 0.00 66 1018.1
20260507020003 68 45 3.0 7.0 0.00 0.00 0.00 66 1018.2
20260507015503 69 45 3.0 7.0 0.00 0.00 0.00 65 1018.3
20260507015003 69 45 3.0 6.0 0.00 0.00 0.00 65 1018.1
20260507014503 69 45 3.0 6.0 0.00 0.00 0.00 66 1018.2
20260507014003 70 45 2.0 5.0 0.00 0.00 0.00 66 1018.1
20260507013503 70 45 2.0 5.0 0.00 0.00 0.00 67 1018.1
20260507013004 70 45 3.0 8.0 0.00 0.00 0.00 66 1018.1
20260507012503 71 45 3.0 7.0 0.00 0.00 0.00 65 1018.0
20260507012003 71 45 3.0 5.0 0.00 0.00 0.00 64 1018.0
20260507011503 72 45 3.0 7.0 0.00 0.00 0.00 63 1018.0
20260507011023 72 45 2.0 7.0 0.00 0.00 0.00 63 1017.9
20260507010503 72 45 3.0 8.0 0.00 0.00 0.00 61 1018.1
20260507010003 72 0 3.0 6.0 0.00 0.00 0.00 61 1018.2
20260507005505 72 0 3.0 7.0 0.00 0.00 0.00 60 1018.0
20260507005005 72 0 3.0 7.0 0.00 0.00 0.00 61 1018.2
20260507004505 73 45 3.0 6.0 0.00 0.00 0.00 61 1018.1
20260507004004 73 45 3.0 10.0 0.00 0.00 0.00 60 1018.1
20260507003505 74 45 3.0 8.0 0.00 0.00 0.00 60 1018.0
20260507003005 74 45 3.0 6.0 0.00 0.00 0.00 57 1018.0
20260507002505 74 338 2.0 6.0 0.00 0.00 0.00 57 1018.0
20260507002005 74 338 3.0 10.0 0.00 0.00 0.00 56 1018.0
20260507001505 74 45 3.0 7.0 0.00 0.00 0.00 55 1018.0
20260507001005 74 338 2.0 5.0 0.00 0.00 0.00 55 1018.0
20260507000505 74 338 3.0 8.0 0.00 0.00 0.00 55 1018.0
20260507000005 74 338 3.0 9.0 0.00 0.00 0.00 55 1018.1
20260506235505 73 0 4.0 8.0 0.00 0.00 0.00 55 1018.0
20260506235005 74 45 3.0 8.0 0.00 0.00 0.00 54 1018.1
20260506234505 74 338 3.0 9.0 0.00 0.00 0.00 54 1018.0
20260506234025 74 338 3.0 8.0 0.00 0.00 0.00 55 1018.0
20260506233505 74 45 3.0 7.0 0.00 0.00 0.00 56 1018.1
20260506233005 74 338 3.0 7.0 0.00 0.00 0.00 56 1018.1
20260506232525 73 45 3.0 9.0 0.00 0.00 0.00 56 1018.1
20260506232005 74 338 3.0 9.0 0.00 0.00 0.00 55 1018.3
20260506231505 74 338 3.0 8.0 0.00 0.00 0.00 55 1018.2
20260506231005 74 45 3.0 8.0 0.00 0.00 0.00 54 1018.3
20260506230505 74 338 2.0 7.0 0.00 0.00 0.00 56 1018.2
20260506230005 73 45 3.0 9.0 0.00 0.00 0.00 57 1018.4
20260506225504 73 45 3.0 7.0 0.00 0.00 0.00 57 1018.5
20260506225005 73 45 3.0 8.0 0.00 0.00 0.00 57 1018.5
20260506224505 73 45 3.0 8.0 0.00 0.00 0.00 58 1018.5
20260506224005 73 45 3.0 8.0 0.00 0.00 0.00 58 1018.7
20260506223504 73 45 3.0 7.0 0.00 0.00 0.00 58 1018.6
20260506223025 73 45 4.0 8.0 0.00 0.00 0.00 58 1018.6
20260506222525 73 45 4.0 10.0 0.00 0.00 0.00 57 1018.7
20260506222005 74 0 3.0 9.0 0.00 0.00 0.00 57 1018.8
20260506221505 73 45 3.0 9.0 0.00 0.00 0.00 58 1018.8
20260506221004 73 45 3.0 8.0 0.00 0.00 0.00 58 1018.8
20260506220505 73 45 3.0 6.0 0.00 0.00 0.00 58 1019.0
20260506220005 73 45 3.0 7.0 0.00 0.00 0.00 58 1018.9
20260506215504 73 23 3.0 8.0 0.00 0.00 0.00 57 1019.0
20260506215005 73 45 4.0 7.0 0.00 0.00 0.00 57 1019.1
20260506214504 74 45 3.0 8.0 0.00 0.00 0.00 57 1019.1
20260506214024 74 45 2.0 5.0 0.00 0.00 0.00 56 1019.1
20260506213504 73 338 2.0 6.0 0.00 0.00 0.00 58 1019.1
20260506213004 72 45 3.0 6.0 0.00 0.00 0.00 58 1019.2
20260506212504 72 45 3.0 8.0 0.00 0.00 0.00 58 1019.4
20260506212004 72 45 3.0 6.0 0.00 0.00 0.00 59 1019.3
20260506211505 72 45 3.0 6.0 0.00 0.00 0.00 58 1019.4
20260506211004 72 338 2.0 6.0 0.00 0.00 0.00 59 1019.5
20260506210504 72 45 2.0 6.0 0.00 0.00 0.00 59 1019.5
20260506210004 72 68 3.0 6.0 0.00 0.00 0.00 59 1019.5
20260506205504 72 45 2.0 6.0 0.00 0.00 0.00 61 1019.6
20260506205005 71 45 3.0 7.0 0.00 0.00 0.00 60 1019.6
20260506204504 72 68 3.0 7.0 0.00 0.00 0.00 60 1019.7
20260506204004 72 45 2.0 5.0 0.00 0.00 0.00 61 1019.7
20260506203504 72 68 2.0 8.0 0.00 0.00 0.00 61 1019.7
20260506203004 72 45 2.0 7.0 0.00 0.00 0.00 61 1019.8
20260506202505 71 45 2.0 7.0 0.00 0.00 0.00 61 1019.9
20260506202004 71 338 1.0 4.0 0.00 0.00 0.00 61 1020.1
20260506201504 70 45 2.0 6.0 0.00 0.00 0.00 60 1020.2
20260506201004 70 338 2.0 7.0 0.00 0.00 0.00 60 1020.1
20260506200504 70 45 2.0 7.0 0.00 0.00 0.00 61 1020.2
20260506200005 70 68 2.0 6.0 0.00 0.00 0.00 61 1020.4
20260506195524 70 45 2.0 5.0 0.00 0.00 0.00 61 1020.2
20260506195004 70 68 3.0 6.0 0.00 0.00 0.00 61 1020.3
20260506194504 70 68 2.0 8.0 0.00 0.00 0.00 63 1020.3
20260506194004 69 45 2.0 5.0 0.00 0.00 0.00 63 1020.3
20260506193504 69 45 2.0 5.0 0.00 0.00 0.00 63 1020.3
20260506193005 69 45 2.0 6.0 0.00 0.00 0.00 63 1020.4
20260506192504 68 68 3.0 8.0 0.00 0.00 0.00 64 1020.4
20260506192024 68 45 2.0 8.0 0.00 0.00 0.00 65 1020.4
20260506191504 68 338 2.0 4.0 0.00 0.00 0.00 64 1020.4
20260506191004 68 45 2.0 6.0 0.00 0.00 0.00 64 1020.5
20260506190504 68 68 2.0 5.0 0.00 0.00 0.00 65 1020.7
20260506190005 68 45 2.0 5.0 0.00 0.00 0.00 64 1020.6
20260506185504 68 45 2.0 5.0 0.00 0.00 0.00 63 1020.6
20260506185024 69 45 2.0 6.0 0.00 0.00 0.00 63 1020.6
20260506184504 68 68 2.0 4.0 0.00 0.00 0.00 65 1020.7
20260506184004 68 45 2.0 6.0 0.00 0.00 0.00 64 1020.7
20260506183504 68 113 2.0 5.0 0.00 0.00 0.00 65 1020.7
20260506183005 67 113 1.0 3.0 0.00 0.00 0.00 66 1020.8
20260506182504 66 203 1.0 3.0 0.00 0.00 0.00 67 1020.9
20260506182024 66 45 2.0 5.0 0.00 0.00 0.00 67 1020.9
20260506181504 65 90 1.0 3.0 0.00 0.00 0.00 68 1020.8
20260506181004 65 338 1.0 5.0 0.00 0.00 0.00 68 1020.8
20260506180504 65 338 1.0 5.0 0.00 0.00 0.00 69 1021.0
20260506180005 64 270 1.0 3.0 0.00 0.00 0.00 70 1020.9
20260506175504 64 225 2.0 4.0 0.00 0.00 0.00 70 1021.0
20260506175004 64 225 2.0 4.0 0.00 0.00 0.00 71 1020.9
20260506174504 63 338 1.0 3.0 0.00 0.00 0.00 72 1021.1
20260506174004 63 338 1.0 3.0 0.00 0.00 0.00 73 1021.1
20260506173544 63 338 1.0 3.0 0.00 0.00 0.00 73 1021.0
20260506173024 62 0.0 2.0 0.00 0.00 0.00 74 1021.1
20260506172504 62 315 1.0 3.0 0.00 0.00 0.00 75 1021.0
20260506172004 61 338 1.0 3.0 0.00 0.00 0.00 75 1021.1
20260506171504 61 315 1.0 3.0 0.00 0.00 0.00 75 1021.1
20260506171003 61 45 1.0 3.0 0.00 0.00 0.00 76 1021.1
20260506170503 61 45 2.0 3.0 0.00 0.00 0.00 75 1021.2
20260506170004 61 45 1.0 4.0 0.00 0.00 0.00 76 1021.1
20260506165505 61 0 1.0 3.0 0.00 0.00 0.00 77 1021.2
20260506165004 60 315 1.0 2.0 0.00 0.00 0.00 77 1021.2
20260506164504 60 45 1.0 2.0 0.00 0.00 0.00 77 1021.2
20260506164044 60 315 1.0 3.0 0.00 0.00 0.00 78 1021.1
20260506163503 60 293 1.0 3.0 0.00 0.00 0.00 78 1021.1
20260506163004 60 293 1.0 4.0 0.00 0.00 0.00 80 1021.2
20260506162503 59 338 1.0 2.0 0.00 0.00 0.00 81 1021.2
20260506162004 59 338 1.0 2.0 0.00 0.00 0.00 81 1021.2
20260506161503 59 315 1.0 2.0 0.00 0.00 0.00 83 1021.2
20260506161003 58 315 1.0 2.0 0.00 0.00 0.00 83 1021.1
20260506160503 58 293 1.0 2.0 0.00 0.00 0.00 84 1021.2
20260506160004 58 203 1.0 2.0 0.00 0.00 0.00 84 1021.2
20260506155504 58 293 1.0 2.0 0.00 0.00 0.00 85 1021.1
20260506155003 58 315 1.0 2.0 0.00 0.00 0.00 85 1021.2
20260506154503 57 315 1.0 3.0 0.00 0.00 0.00 86 1021.1
20260506154003 57 0.0 2.0 0.00 0.00 0.00 86 1021.1
20260506153503 57 338 1.0 2.0 0.00 0.00 0.00 87 1021.1
20260506153004 57 315 1.0 2.0 0.00 0.00 0.00 87 1021.1
20260506152523 56 0.0 1.0 0.00 0.00 0.00 87 1021.2
20260506152023 56 0.0 1.0 0.00 0.00 0.00 88 1021.2
20260506151523 56 0.0 1.0 0.00 0.00 0.00 88 1021.1
20260506151003 56 0.0 1.0 0.00 0.00 0.00 88 1021.1
20260506150503 56 0.0 1.0 0.00 0.00 0.00 88 1021.1
20260506150004 56 0.0 2.0 0.00 0.00 0.00 88 1021.1
20260506145503 55 315 1.0 2.0 0.00 0.00 0.00 89 1021.1
20260506145003 55 0.0 1.0 0.00 0.00 0.00 89 1021.0
20260506144523 55 0.0 1.0 0.00 0.00 0.00 89 1021.1
20260506144003 55 0.0 2.0 0.00 0.00 0.00 89 1021.0
20260506143503 55 0.0 1.0 0.00 0.00 0.00 89 1020.9
20260506143003 55 0.0 1.0 0.00 0.00 0.00 89 1021.0
20260506142504 55 0.0 1.0 0.00 0.00 0.00 89 1020.8
20260506142003 55 0.0 2.0 0.00 0.00 0.00 89 1020.9
20260506141503 54 0.0 2.0 0.00 0.00 0.00 90 1020.9
20260506141023 54 0.0 1.0 0.00 0.00 0.00 90 1020.7
20260506140503 54 0.0 1.0 0.00 0.00 0.00 90 1020.8
20260506140004 54 0.0 1.0 0.00 0.00 0.00 89 1020.8
20260506135503 54 0.0 2.0 0.00 0.00 0.00 89 1020.6
20260506135004 54 0.0 2.0 0.00 0.00 0.00 89 1020.5
20260506134504 54 0.0 1.0 0.00 0.00 0.00 90 1020.5
20260506134003 54 0.0 1.0 0.00 0.00 0.00 90 1020.3
20260506133503 54 0.0 1.0 0.00 0.00 0.00 90 1020.3
20260506133023 53 0.0 1.0 0.00 0.00 0.00 90 1020.3
20260506132504 53 0.0 2.0 0.00 0.00 0.00 89 1020.1
20260506132003 53 0.0 1.0 0.00 0.00 0.00 89 1020.0
20260506131503 53 0.0 1.0 0.00 0.00 0.00 89 1020.1
20260506131004 53 0.0 1.0 0.00 0.00 0.00 89 1020.1
20260506130503 53 0.0 1.0 0.00 0.00 0.00 89 1020.0
20260506130004 53 0.0 1.0 0.00 0.00 0.00 89 1019.9
20260506125503 53 0.0 1.0 0.00 0.00 0.00 88 1019.9
20260506125003 53 0.0 1.0 0.00 0.00 0.00 88 1019.8
20260506124503 53 0.0 1.0 0.00 0.00 0.00 88 1019.8
20260506124003 52 0.0 1.0 0.00 0.00 0.00 88 1019.9
20260506123503 52 0.0 1.0 0.00 0.00 0.00 88 1019.8
20260506123003 52 0.0 0.0 0.00 0.00 0.00 87 1019.9
20260506122503 52 0.0 1.0 0.00 0.00 0.00 87 1019.9
20260506122003 52 0.0 1.0 0.00 0.00 0.00 86 1019.8
20260506121503 52 0.0 1.0 0.00 0.00 0.00 86 1019.9
20260506121003 52 0.0 1.0 0.00 0.00 0.00 86 1019.8
20260506120503 52 0.0 1.0 0.00 0.00 0.00 86 1019.7
20260506120004 53 0.0 1.0 0.00 0.00 0.00 86 1019.7
20260506115503 53 0.0 1.0 0.00 0.00 0.00 85 1019.7
20260506115003 53 0.0 1.0 0.00 0.00 0.00 85 1019.7
20260506114503 53 0.0 1.0 0.00 0.00 0.00 85 1019.6
20260506114003 53 0.0 1.0 0.00 0.00 0.00 84 1019.6
20260506113503 53 0.0 1.0 0.00 0.00 0.00 84 1019.5
20260506113003 53 0.0 1.0 0.00 0.00 0.00 84 1019.5
20260506112503 53 0.0 1.0 0.00 0.00 0.00 84 1019.4
20260506112023 53 0.0 1.0 0.00 0.00 0.00 83 1019.4
20260506111503 53 0.0 1.0 0.00 0.00 0.00 83 1019.5
20260506111003 54 0.0 1.0 0.00 0.00 0.00 83 1019.3
20260506110503 54 0.0 1.0 0.00 0.00 0.00 82 1019.4
20260506110003 54 0.0 1.0 0.00 0.00 0.00 81 1019.4
20260506105503 54 0.0 1.0 0.00 0.00 0.00 81 1019.3
20260506105002 54 0.0 1.0 0.00 0.00 0.00 81 1019.3
20260506104504 55 0.0 1.0 0.00 0.00 0.00 81 1019.3
20260506104003 55 0.0 1.0 0.00 0.00 0.00 81 1019.3
20260506103502 55 0.0 1.0 0.00 0.00 0.00 80 1019.2
20260506103005 55 0.0 1.0 0.00 0.00 0.00 80 1019.3
20260506102505 56 0.0 1.0 0.00 0.00 0.00 80 1019.3
20260506102005 56 0.0 1.0 0.00 0.00 0.00 80 1019.4
20260506101504 56 0.0 1.0 0.00 0.00 0.00 80 1019.2
20260506101005 56 0.0 1.0 0.00 0.00 0.00 80 1019.3
20260506100505 56 0.0 1.0 0.00 0.00 0.00 80 1019.4
20260506100005 57 0.0 1.0 0.00 0.00 0.00 81 1019.2
20260506095505 57 0.0 1.0 0.00 0.00 0.00 81 1019.2
20260506095004 57 0.0 2.0 0.00 0.00 0.00 81 1019.2
20260506094505 57 0.0 1.0 0.00 0.00 0.00 81 1019.2
20260506094005 57 0.0 1.0 0.00 0.00 0.00 81 1019.3
20260506093505 57 0 1.0 2.0 0.00 0.00 0.00 81 1019.2
20260506093005 57 0.0 2.0 0.00 0.00 0.00 81 1019.3
20260506092505 57 0.0 1.0 0.00 0.00 0.00 81 1019.3
20260506092004 58 0 1.0 2.0 0.00 0.00 0.00 81 1019.4
20260506091505 58 338 1.0 3.0 0.00 0.00 0.00 81 1019.3
20260506091025 58 338 1.0 3.0 0.00 0.00 0.00 81 1019.3
20260506090545 58 338 1.0 3.0 0.00 0.00 0.00 82 1019.3
20260506090005 58 338 1.0 3.0 0.00 0.00 0.00 82 1019.2
20260506085505 58 338 1.0 2.0 0.00 0.00 0.00 82 1019.2
20260506085004 58 338 1.0 2.0 0.00 0.00 0.00 81 1019.2
20260506084525 58 0.0 2.0 0.00 0.00 0.00 81 1019.4
20260506084004 58 315 1.0 2.0 0.00 0.00 0.00 81 1019.3
20260506083504 58 338 1.0 2.0 0.00 0.00 0.00 81 1019.3
20260506083004 58 338 1.0 2.0 0.00 0.00 0.00 81 1019.4
20260506082525 58 315 1.0 2.0 0.00 0.00 0.00 81 1019.3
20260506082009 58 338 1.0 2.0 0.00 0.00 0.00 81 1019.4
20260506081504 58 338 1.0 2.0 0.00 0.00 0.00 81 1019.4
20260506081005 58 45 1.0 3.0 0.00 0.00 0.00 81 1019.4
20260506080504 58 338 1.0 2.0 0.00 0.00 0.00 81 1019.3
20260506073504 58 45 1.0 2.0 0.00 0.00 0.00 80 1019.2
20260506073004 58 45 1.0 2.0 0.00 0.00 0.00 80 1019.1
20260506072503 58 338 1.0 3.0 0.00 0.00 0.00 80 1019.2
20260506072003 58 338 1.0 3.0 0.00 0.00 0.00 80 1019.1
20260506071504 58 45 1.0 3.0 0.00 0.00 0.00 80 1019.1
20260506071003 58 338 1.0 2.0 0.00 0.00 0.00 80 1019.1